{"data":{"norad_id":67738,"epoch":"2026-05-25T03:10:11.502912Z","epoch_age_seconds":70813,"freshness":"FRESH","line1":"1 67738U 26026T   26145.13207758  .00014567  00000+0  45208-3 0  9992","line2":"2 67738  97.2848 198.6990 0000830 118.5757 241.5569 15.33486468 15846","mean_motion":15.33486468,"eccentricity":8.3e-5,"inclination_deg":97.2848,"raan_deg":198.699,"arg_perigee_deg":118.5757,"mean_anomaly_deg":241.5569,"bstar":0.00045208,"rev_number":1584,"period_min":93.903665278382,"perigee_km":464.85178245147,"apogee_km":465.98781287989,"semimajor_km":6843.5567976657,"source":"CELESTRAK","updated_at":"2026-05-25T13:38:21.690112Z"}}